Weather History for Walterboro, SC

Change the Weather History Date:

Friday, March 14, 2014

  Actual Average Record
Temperature  
Mean Temperature 46 °F -  
Max Temperature 64 °F 71 °F 84 °F (2012)
Min Temperature 28 °F 44 °F 28 °F (2014)
Degree Days  
Heating Degree Days 19    
Moisture  
Dew Point 35 °F    
Average Humidity 56    
Maximum Humidity 100    
Minimum Humidity 27    
Precipitation  
Precipitation 0.00 in - - ()
Sea Level Pressure  
Sea Level Pressure 30.28 in    
Wind  
Wind Speed 3 mph (South)    
Max Wind Speed 15 mph    
Max Gust Speed 22 mph    
Visibility 10 miles    
Events      
Averages and records for this station are not official NWS values.
T = Trace of Precipitation, MM = Missing Value Source: NWS Daily Summary

Daily Weather History Graph

Daily Weather History Graph

Search for Another Location

Airport:

Trip Planner

Search our weather history database for the weather conditions in past years. The results will help you decide how hot, cold, wet, or windy it might be!

Date:

Astronomy

Mar. 14, 2014 Rise Set
Actual Time 7:34 AM EDT 7:29 PM EDT
Civil Twilight 7:09 AM EDT 7:54 PM EDT
Nautical Twilight 6:40 AM EDT 8:23 PM EDT
Astronomical Twilight 6:12 AM EDT 8:51 PM EDT
Moon 5:54 PM EDT (3/14) 6:08 AM EDT (3/14)
Length of Visible Light 12h 44m
Length of Day
11h 55m
Waxing Gibbous, 96% of the Moon is Illuminated
Mar 14
Waxing Gibbous
Mar 16
Full
Mar 23
Last Quarter
Mar 30
New
Apr 7
First Quarter

Hourly Weather History & Observations

Time (EDT) Temp. Dew Point Humidity Pressure Visibility Wind Dir Wind Speed Gust Speed Precip Events Conditions
12:15 AM 33.8 °F 32.0 °F 93% 30.26 in 10.0 mi Calm Calm - N/A   Clear
12:35 AM 33.8 °F 32.0 °F 93% 30.26 in 10.0 mi Calm Calm - N/A   Clear
12:55 AM 32.0 °F 32.0 °F 100% 30.26 in 10.0 mi Calm Calm - N/A   Clear
1:15 AM 32.0 °F 32.0 °F 100% 30.26 in 10.0 mi Calm Calm - N/A   Clear
1:35 AM 32.0 °F 32.0 °F 100% 30.27 in 10.0 mi Calm Calm - N/A   Clear
1:55 AM 32.0 °F 32.0 °F 100% 30.27 in 10.0 mi Calm Calm - N/A   Clear
2:15 AM 32.0 °F 30.2 °F 93% 30.26 in 10.0 mi Calm Calm - N/A   Clear
2:35 AM 32.0 °F - N/A% 30.27 in 10.0 mi Calm Calm - N/A   Clear
2:55 AM 32.0 °F - N/A% 30.27 in 10.0 mi Calm Calm - N/A   Clear
3:15 AM 30.2 °F - N/A% 30.27 in 10.0 mi Calm Calm - N/A   Clear
3:35 AM 30.2 °F - N/A% 30.28 in 10.0 mi Calm Calm - N/A   Clear
3:55 AM 30.2 °F - N/A% 30.28 in 10.0 mi Calm Calm - N/A   Clear
4:35 AM 30.2 °F - N/A% 30.28 in 10.0 mi Calm Calm - N/A   Clear
4:55 AM 30.2 °F - N/A% 30.28 in 10.0 mi Calm Calm - N/A   Clear
5:15 AM 30.2 °F - N/A% 30.30 in 10.0 mi Calm Calm - N/A   Clear
5:35 AM 30.2 °F - N/A% 30.30 in 10.0 mi Calm Calm - N/A   Clear
5:55 AM 30.2 °F - N/A% 30.31 in 10.0 mi Calm Calm - N/A   Clear
6:15 AM 30.2 °F - N/A% 30.31 in 10.0 mi Calm Calm - N/A   Clear
6:35 AM 30.2 °F - N/A% 30.31 in 10.0 mi Calm Calm - N/A   Clear
6:55 AM 28.4 °F - N/A% 30.33 in 10.0 mi Calm Calm - N/A   Clear
7:15 AM 28.4 °F - N/A% 30.33 in 10.0 mi Calm Calm - N/A   Clear
7:35 AM 28.4 °F - N/A% 30.33 in 10.0 mi Calm Calm - N/A   Clear
7:55 AM 30.2 °F - N/A% 30.34 in 10.0 mi Calm Calm - N/A   Clear
8:15 AM 32.0 °F - N/A% 30.34 in 10.0 mi Calm Calm - N/A   Clear
8:35 AM 33.8 °F - N/A% 30.34 in 10.0 mi Calm Calm - N/A   Clear
8:55 AM 37.4 °F 37.4 °F 100% 30.35 in 10.0 mi Calm Calm - N/A   Clear
9:15 AM 41.0 °F 32.0 °F 70% 30.36 in 10.0 mi Calm Calm - N/A   Clear
9:35 AM 44.6 °F 30.2 °F 57% 30.36 in 10.0 mi Calm Calm - N/A   Clear
9:55 AM 48.2 °F 30.2 °F 50% 30.36 in 10.0 mi ESE 3.5 mph - N/A   Clear
10:15 AM 51.8 °F 30.2 °F 44% 30.37 in 10.0 mi SE 3.5 mph - N/A   Clear
10:35 AM 53.6 °F 30.2 °F 41% 30.37 in 10.0 mi Calm Calm - N/A   Clear
10:55 AM 55.4 °F 28.4 °F 36% 30.37 in 10.0 mi SSE 9.2 mph - N/A   Clear
11:15 AM 57.2 °F 28.4 °F 33% 30.37 in 10.0 mi Calm Calm - N/A   Clear
11:35 AM 59.0 °F 28.4 °F 31% 30.37 in 10.0 mi Calm Calm - N/A   Clear
11:55 AM 59.0 °F 30.2 °F 34% 30.37 in 10.0 mi SSW 10.4 mph - N/A   Clear
12:15 PM 59.0 °F 30.2 °F 34% 30.36 in 10.0 mi South 8.1 mph - N/A   Clear
12:35 PM 60.8 °F 30.2 °F 31% 30.36 in 10.0 mi South 8.1 mph - N/A   Clear
12:55 PM 60.8 °F 30.2 °F 31% 30.35 in 10.0 mi SW 8.1 mph - N/A   Clear
1:15 PM 62.6 °F 32.0 °F 32% 30.35 in 10.0 mi South 10.4 mph - N/A   Clear
1:35 PM 62.6 °F 28.4 °F 27% 30.34 in 10.0 mi South 5.8 mph 16.1 mph N/A   Clear
1:55 PM 62.6 °F 30.2 °F 30% 30.32 in 10.0 mi South 11.5 mph 18.4 mph N/A   Clear
2:15 PM 62.6 °F 32.0 °F 32% 30.31 in 10.0 mi SSW 4.6 mph 18.4 mph N/A   Clear
2:35 PM 62.6 °F 32.0 °F 32% 30.30 in 10.0 mi SSW 12.7 mph 16.1 mph N/A   Clear
2:55 PM 62.6 °F 32.0 °F 32% 30.29 in 10.0 mi South 10.4 mph 17.3 mph N/A   Clear
3:15 PM 62.6 °F 33.8 °F 34% 30.27 in 10.0 mi SSW 10.4 mph 16.1 mph N/A   Clear
3:35 PM 64.4 °F 33.8 °F 32% 30.25 in 10.0 mi South 10.4 mph 16.1 mph N/A   Clear
3:55 PM 64.4 °F 33.8 °F 32% 30.24 in 10.0 mi South 12.7 mph 20.7 mph N/A   Clear
4:15 PM 64.4 °F 35.6 °F 34% 30.23 in 10.0 mi South 11.5 mph - N/A   Clear
4:35 PM 64.4 °F 35.6 °F 34% 30.23 in 10.0 mi South 13.8 mph 20.7 mph N/A   Clear
4:55 PM 62.6 °F 37.4 °F 39% 30.22 in 10.0 mi South 15.0 mph 21.9 mph N/A   Clear
5:15 PM 62.6 °F 37.4 °F 39% 30.22 in 10.0 mi South 15.0 mph 20.7 mph N/A   Clear
5:35 PM 62.6 °F 37.4 °F 39% 30.21 in 10.0 mi South 13.8 mph 19.6 mph N/A   Clear
5:55 PM 62.6 °F 39.2 °F 42% 30.21 in 10.0 mi South 11.5 mph 19.6 mph N/A   Clear
6:15 PM 60.8 °F 41.0 °F 48% 30.20 in 10.0 mi South 13.8 mph 18.4 mph N/A   Clear
6:35 PM 60.8 °F 41.0 °F 48% 30.20 in 10.0 mi South 15.0 mph - N/A   Clear
6:55 PM 59.0 °F 41.0 °F 51% 30.20 in 10.0 mi South 12.7 mph 17.3 mph N/A   Clear
7:15 PM 59.0 °F 41.0 °F 51% 30.20 in 10.0 mi South 9.2 mph - N/A   Clear
7:35 PM 55.4 °F 41.0 °F 58% 30.20 in 10.0 mi South 8.1 mph - N/A   Clear
7:55 PM 55.4 °F 41.0 °F 58% 30.21 in 10.0 mi SSE 6.9 mph - N/A   Clear
8:15 PM 53.6 °F 41.0 °F 62% 30.20 in 10.0 mi SSE 4.6 mph - N/A   Clear
8:35 PM 53.6 °F 41.0 °F 62% 30.21 in 10.0 mi Calm Calm - N/A   Clear
8:55 PM 51.8 °F 41.0 °F 67% 30.20 in 10.0 mi Calm Calm - N/A   Clear
9:15 PM 50.0 °F 41.0 °F 71% 30.20 in 10.0 mi SE 5.8 mph - N/A   Clear
9:35 PM 50.0 °F 41.0 °F 71% 30.20 in 10.0 mi Calm Calm - N/A   Clear
9:55 PM 50.0 °F 41.0 °F 71% 30.20 in 10.0 mi Calm Calm - N/A   Clear
10:15 PM 50.0 °F 41.0 °F 71% 30.19 in 10.0 mi Calm Calm - N/A   Clear
10:35 PM 48.2 °F 41.0 °F 76% 30.20 in 10.0 mi Calm Calm - N/A   Clear
10:55 PM 48.2 °F 41.0 °F 76% 30.20 in 10.0 mi Calm Calm - N/A   Clear
11:15 PM 46.4 °F 41.0 °F 81% 30.20 in 10.0 mi Calm Calm - N/A   Clear
11:35 PM 46.4 °F 41.0 °F 81% 30.20 in 10.0 mi Calm Calm - N/A   Clear
11:55 PM 44.6 °F 41.0 °F 87% 30.20 in 10.0 mi Calm Calm - N/A   Clear